[ hide orbit diagram ]
For accurate long-term ephemerides, please instead use our Horizons system.This orbit viewer was implemented using two-body methods, and hence should not be used for determining accurate long-term trajectories (over several years or decades) or planetary encounter circumstances.
Orbital Elements at Epoch 2459200.5 (2020-Dec-17.0) TDB
Reference: JPL 89 (heliocentric ecliptic J2000)
Element | Value | Uncertainty (1-sigma) | Units |
e | .1172596454667511 | 2.1265e-08 | |
a | 2.666508286446199 | 7.6295e-09 | au |
q | 2.353834470143363 | 5.4932e-08 | au |
i | 15.19852138890985 | 5.7892e-07 | deg |
node | 170.5751839384755 | 3.5801e-06 | deg |
peri | 62.62362768333333 | 8.0797e-06 | deg |
M | 172.6683925783173 | 6.9401e-06 | deg |
tp | 2458437.678054667629 (2018-Nov-15.17805467) | 2.9776e-05 | TDB |
period | 1590.423679858466 4.35 | 6.8258e-06 1.869e-08 | d yr |
n | .2263547786411461 | 9.7148e-10 | deg/d |
Q | 2.979182102749034 | 8.5241e-09 | au |
|
| | Orbit Determination Parameters
Additional Information
|
[ show covariance matrix ]
Physical Parameter Table
Parameter |
Symbol |
Value |
Units |
Sigma |
Reference |
Notes |
absolute magnitude |
H |
8.57 |
|
n/a |
E2021B10 |
IRAS observations used: 12 |
magnitude slope |
G |
0.32 |
|
n/a |
PDS3 (MPC 17258) |
Fit |
diameter |
diameter |
60.62 |
km |
1.4 |
IRAS-A-FPA-3-RDR-IMPS-V6.0 |
IRAS observations used: 12 |
rotation period |
rot_per |
6.337 |
h |
n/a |
LCDB (Rev. 2020-October); Warner et al., 2009 |
Published Reference List: [Carlsson, M.; Lagerkvist, C.-I. (1981) Astron. Astrophys. Suppl. Ser. 44, 15-22.] [Harris, A.W.; Young, J.W. (1989) Icarus 81, 314-364.] [Kryszczynska, A.; Colas, F.; Berthier, J.; Michalowski, T.; Pych, W. (1996) Icarus 124, 134-140.] [Fauerbach, M.; Bennett, T. (2005) Minor Planet Bull. 32, 80-81.] [Behrend, R. (2006) Observatoire de Geneve web site, http://obswww.unige.ch/~behrend/page_cou.html] [Durech, J.; Kaasalainen, M.; Marciniak, A.; et al. (2007) Astron. Astrophys. 465, 331-337.] [Behrend, R. (2010) Observatoire de Geneve web site, http://obswww.unige.ch/~behrend/page_cou.html] [Durech, J. (2011) Database of Asteroid Models from Inversion Techniques (DAMIT). http://astro.troja.mff.cuni.cz/projects/asteroids3D/web.php] [Garceran, A.C. (2014) Posting on CALL web site. http://www.MinorPlanet.info/call.html] [Shevchenko, V.G.; Belksaya, I.N.; Muinon, K.; Penttila, A.; et al. (2016) Plan. Space Sci. 123, 101-116.] [Alton, K.B. (2019) Minor Planet Bull. 46, 114-117.] |
geometric albedo |
albedo |
0.1746 |
|
0.008 |
IRAS-A-FPA-3-RDR-IMPS-V6.0 |
IRAS observations used: 12 |
B-V |
BV |
0.859 |
|
0.004 |
EAR-A-5-DDR-UBV-MEAN-VALUES-V1.2 |
#obs=2; phase (min.=4.55, mean=8.27, max.=12.00) deg. |
U-B |
UB |
0.443 |
|
0.012 |
EAR-A-5-DDR-UBV-MEAN-VALUES-V1.2 |
#obs=2; phase (min.=4.55, mean=8.27, max.=12.00) deg. |
Tholen spectral type |
spec_T |
S |
|
n/a |
EAR-A-5-DDR-TAXONOMY-V4.0 |
used 2 color indices |
|
218 Bianca (A880 RA) Discovered 1880-Sep-04 by Palisa, J. at Pola |
Reference: DISCOVERY.DB | Last Updated: 2003-08-29 |
|
|